Home > Weather > Angels Camp > Past weeks

Flag for U.S.A. Weather for the Past 2 Weeks in Angels Camp, California, U.S.A.

Now
49 °F

Fog.


Feels Like: 46 °F
Forecast: 37 / 68 °F
Wind: 6 mph from South

Location: Modesto City-County-Sham Field

Current Time: Feb 7, 2016 at 10:08:51 AM

Latest Report: Feb 7, 2016 at 8:53 AM


Visibility: 4 mi

Pressure: 30.30 "Hg

Humidity: 86%

Dew point: 45 °F

Location of Angels CampLocation

Historic Weather in Angels Camp — Graph

°F

Angels Camp Temperature Yesterday

Maximum temperature yesterday: 65 °F (at 2:53 PM)
Minimum temperature yesterday: 39 °F (at 4:52 AM)
Average temperature yesterday: 52 °F

High & Low Weather Summary for the Past Weeks

 TemperatureHumidityPressure
High65 °F (Feb 6, 2:53 PM)100% (Jan 26, 4:53 AM)30.49 "Hg (Jan 26, 4:53 AM)
Low35 °F (Feb 3, 6:53 AM)28% (Feb 1, 3:53 PM)29.71 "Hg (Jan 31, 2:53 PM)
Average50 °F77%30.23 "Hg
* Reported Jan 23 8:53 AM — Feb 7 8:53 AM, Angels Camp, Weather by CustomWeather, © 2016

Note: Actual official high and low records may vary slightly from our data, if they occured in-between our weather recording intervals... More about our weather records

Advertising

Angels Camp Weather History for the Previous 24 Hours

 ConditionsComfort  
Time TempWeatherWind HumidityBarometerVisibility
8:53 AM
Sun, Feb 7
49 °FFog.6 mph86%30.30 "Hg4 mi
7:53 AM42 °FFog.No wind96%30.30 "Hg1 mi
6:53 AM40 °FFog.3 mph93%30.29 "Hg1 mi
5:53 AM41 °FFog.3 mph93%30.28 "Hg1 mi
5:04 AM40 °FFog.5 mph93%30.28 "Hg2 mi
3:53 AM43 °FFog.No wind93%30.29 "Hg2 mi
2:53 AM43 °FFog.5 mph89%30.30 "Hg4 mi
1:53 AM43 °FFog.3 mph93%30.31 "Hg6 mi
12:53 AM45 °FClear.No wind90%30.32 "Hg8 mi
11:53 PM
Sat, Feb 6
46 °FClear.3 mph89%30.33 "Hg10 mi
10:53 PM53 °FClear.5 mph74%30.33 "Hg10 mi
9:53 PM51 °FClear.No wind80%30.32 "Hg10 mi
8:53 PM54 °FClear.No wind74%30.31 "Hg10 mi
7:53 PM55 °FClear.7 mph74%30.30 "Hg10 mi
6:53 PM57 °FClear.6 mph67%30.30 "Hg10 mi
5:53 PM59 °FClear.6 mph60%30.30 "Hg10 mi
4:53 PM62 °FSunny.8 mph56%30.30 "Hg10 mi
3:53 PM65 °FSunny.9 mph49%30.31 "Hg10 mi
2:53 PM65 °FSunny.8 mph51%30.32 "Hg10 mi
1:53 PM64 °FSunny.12 mph52%30.33 "Hg10 mi
12:53 PM63 °FSunny.8 mph56%30.37 "Hg10 mi
11:53 AM61 °FSunny.6 mph60%30.41 "Hg10 mi
10:53 AM57 °FSunny.3 mph69%30.43 "Hg9 mi
Weather by CustomWeather, © 2016

See weather overviewHow to use our weather pages